FW1691 Weather Reports


time (UTC)temp
C
wind
direction
speed
KPH
gust
KPH
rain 1hr
cm
rain 24hr
cm
rain mn
cm
humidity
%
barometer
mb
20260906150517 21 155 1.6 12.9 0.00 0.03 0.00 91 1021.0
20260906150041 21 138 4.8 12.9 0.00 0.03 0.00 92 1020.9
20260906145520 20 142 3.2 8.0 0.00 0.03 0.00 92 1021.0
20260906145019 20 117 1.6 9.7 0.00 0.03 0.00 93 1020.9
20260906144542 20 194 3.2 9.7 0.00 0.03 0.00 93 1020.8
20260906144020 20 88 1.6 9.7 0.00 0.03 0.00 94 1020.6
20260906143520 20 121 3.2 9.7 0.00 0.03 0.00 94 1020.7
20260906143045 20 29 1.6 8.0 0.00 0.03 0.00 94 1020.7
20260906142520 20 128 1.6 16.1 0.00 0.03 0.00 95 1020.6
20260906142023 20 225 4.8 16.1 0.00 0.03 0.00 95 1020.6
20260906141543 20 117 1.6 9.7 0.00 0.03 0.00 96 1020.7
20260906141021 19 112 3.2 9.7 0.00 0.03 0.00 95 1020.8
20260906140519 19 133 4.8 9.7 0.00 0.03 0.00 95 1020.8
20260906140038 19 177 1.6 9.7 0.00 0.03 0.00 96 1020.7
20260906135517 19 138 3.2 9.7 0.00 0.03 0.00 96 1020.8
20260906135020 19 98 3.2 9.7 0.00 0.03 0.00 96 1020.8
20260906134605 19 126 3.2 6.4 0.00 0.03 0.00 96 1020.7
20260906134020 19 132 0.0 9.7 0.00 0.03 0.00 96 1020.7
20260906133516 19 167 1.6 9.7 0.00 0.03 0.00 97 1020.6
20260906133048 19 169 1.6 8.0 0.00 0.03 0.00 97 1020.6
20260906132519 19 148 1.6 9.7 0.00 0.03 0.00 97 1020.5
20260906132020 18 193 1.6 11.3 0.00 0.03 0.00 97 1020.4
20260906131537 18 159 3.2 12.9 0.00 0.03 0.00 97 1020.4
20260906131020 18 122 1.6 12.9 0.00 0.03 0.00 97 1020.5
20260906130520 18 134 3.2 12.9 0.00 0.03 0.00 97 1020.4
20260906130042 18 178 3.2 9.7 0.00 0.03 0.00 97 1020.3
20260906125520 18 179 3.2 11.3 0.00 0.03 0.00 97 1020.3
20260906125025 18 157 3.2 11.3 0.00 0.03 0.00 97 1020.2
20260906124541 18 181 1.6 11.3 0.00 0.03 0.00 97 1020.2
20260906124018 18 109 1.6 8.0 0.00 0.03 0.00 97 1020.2
20260906123519 18 127 1.6 8.0 0.00 0.03 0.00 97 1020.2
20260906123051 18 162 1.6 6.4 0.00 0.03 0.00 97 1020.2
20260906122520 18 134 1.6 9.7 0.00 0.03 0.00 97 1020.2
20260906122018 18 118 1.6 9.7 0.00 0.03 0.00 97 1020.2
20260906121542 18 184 1.6 9.7 0.00 0.03 0.00 97 1020.1
20260906121017 18 0 1.6 9.7 0.00 0.03 0.00 97 1020.2
20260906120520 18 118 0.0 6.4 0.00 0.03 0.00 97 1020.1
20260906120041 18 127 1.6 6.4 0.00 0.03 0.00 97 1020.0
20260906115521 18 40 1.6 8.0 0.00 0.03 0.00 97 1020.0
20260906115022 18 0 1.6 8.0 0.00 0.03 0.00 97 1020.0
20260906114539 18 140 1.6 8.0 0.00 0.03 0.00 97 1020.0
20260906114018 18 159 1.6 9.7 0.00 0.03 0.00 97 1020.0
20260906113518 18 69 3.2 9.7 0.00 0.03 0.00 97 1020.0
20260906113037 18 117 1.6 19.3 0.00 0.03 0.00 97 1019.9
20260906112524 18 184 4.8 19.3 0.00 0.03 0.00 97 1019.6
20260906112019 18 178 4.8 14.5 0.00 0.03 0.00 97 1019.5
20260906111538 18 161 1.6 8.0 0.00 0.03 0.00 97 1019.4
20260906111017 18 186 1.6 9.7 0.00 0.03 0.00 97 1019.3
20260906110517 18 143 3.2 9.7 0.00 0.03 0.00 97 1019.2
20260906110048 18 184 1.6 11.3 0.00 0.03 0.00 97 1019.2
20260906105522 18 156 1.6 11.3 0.00 0.03 0.00 97 1019.2
20260906105020 18 146 1.6 8.0 0.00 0.03 0.00 97 1019.2
20260906104540 18 152 0.0 4.8 0.00 0.03 0.00 97 1019.1
20260906104016 18 0 0.0 6.4 0.00 0.03 0.00 97 1019.2
20260906103516 18 127 1.6 6.4 0.00 0.03 0.00 97 1019.2
20260906103054 18 0 1.6 11.3 0.00 0.03 0.00 96 1019.2
20260906102519 18 140 3.2 11.3 0.00 0.03 0.00 96 1019.1
20260906102024 18 126 6.4 16.1 0.00 0.03 0.00 96 1019.1
20260906101536 18 98 4.8 16.1 0.00 0.03 0.00 96 1019.1
20260906101017 18 94 8.0 16.1 0.00 0.03 0.00 97 1019.0
20260906100523 18 113 6.4 11.3 0.00 0.03 0.00 97 1018.9
20260906100040 18 106 3.2 6.4 0.00 0.03 0.00 96 1019.1
20260906095520 18 157 0.0 4.8 0.00 0.03 0.00 96 1019.2
20260906095020 18 144 0.0 3.2 0.00 0.03 0.00 96 1019.0
20260906094538 18 123 1.6 3.2 0.00 0.03 0.00 96 1018.8
20260906094018 18 0 0.0 4.8 0.00 0.03 0.00 96 1018.8
20260906093522 18 141 1.6 9.7 0.00 0.03 0.00 96 1018.7
20260906093040 18 0 1.6 9.7 0.00 0.03 0.00 96 1018.6
20260906092520 18 0 0.0 4.8 0.00 0.03 0.00 96 1018.4
20260906092026 18 0 1.6 4.8 0.00 0.03 0.00 95 1018.4
20260906091541 18 136 1.6 4.8 0.00 0.03 0.00 95 1018.5
20260906091020 18 139 1.6 4.8 0.00 0.03 0.00 95 1018.5
20260906090518 18 0 0.0 4.8 0.00 0.03 0.00 95 1018.4
20260906090056 18 111 1.6 4.8 0.00 0.03 0.00 95 1018.5
20260906085518 19 0 1.6 4.8 0.00 0.03 0.00 95 1018.4
20260906085017 19 0 0.0 6.4 0.00 0.03 0.00 95 1018.5
20260906084542 19 109 1.6 6.4 0.00 0.03 0.00 95 1018.4
20260906084017 19 133 0.0 3.2 0.00 0.03 0.00 94 1018.4
20260906083517 19 0 0.0 3.2 0.00 0.03 0.00 94 1018.3
20260906083039 19 0 0.0 3.2 0.00 0.03 0.00 94 1018.5
20260906082520 19 0 0.0 4.8 0.00 0.03 0.00 94 1018.5
20260906082023 19 0 0.0 4.8 0.00 0.03 0.00 94 1018.4
20260906081542 19 119 1.6 4.8 0.00 0.03 0.00 94 1018.5
20260906081017 19 138 1.6 4.8 0.00 0.03 0.00 94 1018.6
20260906080521 20 0 0.0 9.7 0.00 0.03 0.00 94 1018.6
20260906080037 20 117 3.2 9.7 0.00 0.03 0.00 94 1018.6
20260906075520 20 100 3.2 12.9 0.00 0.03 0.00 94 1018.6
20260906075020 20 108 3.2 12.9 0.00 0.03 0.00 94 1018.7
20260906074536 20 109 6.4 12.9 0.00 0.03 0.00 93 1018.7
20260906074018 20 105 6.4 12.9 0.00 0.03 0.00 93 1018.6
20260906073521 20 103 6.4 14.5 0.00 0.03 0.00 93 1018.6
20260906073055 20 103 6.4 14.5 0.00 0.03 0.00 93 1018.6
20260906072520 20 124 9.7 14.5 0.00 0.03 0.00 93 1018.5
20260906072027 20 93 4.8 14.5 0.00 0.03 0.00 93 1018.5
20260906071540 20 124 6.4 14.5 0.00 0.03 0.00 94 1018.7
20260906071020 20 85 6.4 14.5 0.00 0.03 0.00 94 1018.6
20260906070518 20 92 6.4 12.9 0.00 0.03 0.00 94 1018.6
20260906070044 20 107 6.4 11.3 0.00 0.03 0.00 94 1018.6
20260906065523 20 92 6.4 12.9 0.00 0.03 0.00 94 1018.6
20260906065015 20 109 6.4 12.9 0.00 0.03 0.00 93 1018.7
20260906064539 20 112 6.4 12.9 0.00 0.03 0.00 93 1018.8
20260906064022 20 107 6.4 12.9 0.00 0.03 0.00 93 1018.8
20260906063518 20 103 8.0 12.9 0.00 0.03 0.00 94 1018.9
20260906063048 20 96 4.8 11.3 0.00 0.03 0.00 94 1019.1
20260906062523 20 100 3.2 9.7 0.00 0.03 0.00 94 1019.1
20260906062017 20 101 3.2 9.7 0.00 0.03 0.00 94 1019.2
20260906061543 20 114 1.6 6.4 0.00 0.03 0.00 93 1019.1
20260906061021 20 106 1.6 6.4 0.00 0.03 0.00 93 1019.0
20260906060517 20 103 3.2 6.4 0.00 0.03 0.00 93 1018.9
20260906060037 20 132 0.0 4.8 0.00 0.03 0.00 93 1018.9
20260906055524 20 0 0.0 4.8 0.00 0.05 0.00 93 1019.0
20260906055020 20 132 0.0 3.2 0.00 0.05 0.00 93 1019.0
20260906054538 20 0 0.0 4.8 0.00 0.05 0.00 93 1018.9
20260906054021 21 133 1.6 4.8 0.00 0.05 0.00 93 1018.9
20260906053518 21 131 0.0 4.8 0.00 0.05 0.00 92 1018.8
20260906053036 21 0 0.0 4.8 0.00 0.05 0.00 92 1018.9
20260906052524 21 123 0.0 3.2 0.00 0.05 0.00 92 1018.8
20260906052021 21 123 0.0 3.2 0.00 0.05 0.00 92 1018.9
20260906051555 21 123 0.0 3.2 0.00 0.05 0.00 92 1018.9
20260906051020 21 0 0.0 1.6 0.00 0.05 0.00 91 1018.8
20260906050517 21 0 0.0 3.2 0.00 0.05 0.00 91 1018.8
20260906050049 21 0 0.0 3.2 0.00 0.05 0.00 91 1018.9
20260906045520 21 0 0.0 3.2 0.00 0.05 0.05 91 1019.0
20260906045016 21 0 0.0 3.2 0.00 0.05 0.05 90 1018.9
20260906044547 21 0 0.0 1.6 0.00 0.05 0.05 90 1018.9
20260906044025 21 0 0.0 1.6 0.00 0.05 0.05 90 1019.1
20260906043522 21 0 0.0 1.6 0.00 0.05 0.05 90 1019.1
20260906043047 21 0 0.0 3.2 0.00 0.05 0.05 90 1019.1
20260906042520 21 0 0.0 3.2 0.00 0.05 0.05 90 1019.0
20260906042017 21 0 0.0 3.2 0.00 0.05 0.05 90 1019.2
20260906041540 21 118 0.0 1.6 0.00 0.05 0.05 90 1019.0
20260906041020 21 0 0.0 3.2 0.00 0.05 0.05 91 1019.1
20260906040520 21 0 0.0 4.8 0.00 0.05 0.05 91 1019.0
20260906040039 21 0 1.6 4.8 0.00 0.05 0.05 91 1019.0
20260906035521 21 141 1.6 3.2 0.00 0.05 0.05 92 1018.8
20260906035018 21 144 0.0 1.6 0.00 0.05 0.05 92 1018.9
20260906034545 21 0 0.0 1.6 0.00 0.05 0.05 92 1018.9
20260906034021 21 0 0.0 3.2 0.00 0.05 0.05 92 1019.1
20260906033518 21 0 0.0 4.8 0.00 0.05 0.05 91 1019.0
20260906033037 21 0 1.6 4.8 0.00 0.05 0.05 91 1019.1
20260906032520 21 0 0.0 3.2 0.00 0.05 0.05 91 1019.0
20260906032017 21 0 0.0 3.2 0.00 0.05 0.05 90 1018.9
20260906031545 21 0 0.0 3.2 0.00 0.05 0.05 90 1019.0
20260906031020 22 0 0.0 3.2 0.00 0.05 0.05 90 1018.9
20260906030520 22 0 0.0 3.2 0.00 0.05 0.05 90 1018.7
20260906030038 22 141 0.0 3.2 0.00 0.05 0.05 90 1018.8
20260906025522 22 0 0.0 3.2 0.00 0.05 0.05 90 1018.7
20260906025018 22 0 0.0 3.2 0.00 0.05 0.05 90 1018.5
20260906024537 22 0 0.0 1.6 0.00 0.05 0.05 90 1018.4
20260906024018 22 0 0.0 3.2 0.00 0.05 0.05 90 1018.3
20260906023521 22 141 0.0 3.2 0.00 0.05 0.05 90 1018.2
20260906023040 22 0 0.0 3.2 0.00 0.05 0.05 90 1018.2
20260906022523 22 0 0.0 1.6 0.00 0.05 0.05 89 1018.1
20260906022017 22 0 0.0 1.6 0.00 0.05 0.05 89 1018.0
20260906021538 22 0 0.0 4.8 0.00 0.05 0.05 89 1017.9
20260906021020 22 0 0.0 4.8 0.00 0.05 0.05 89 1017.8
20260906020522 22 141 1.6 4.8 0.00 0.05 0.05 88 1017.8
20260906020037 22 141 1.6 4.8 0.00 0.05 0.05 89 1017.6
20260906015522 22 141 1.6 4.8 0.00 0.05 0.05 88 1017.6
20260906015021 22 0 0.0 3.2 0.00 0.05 0.05 88 1017.5
20260906014537 22 0 0.0 3.2 0.00 0.05 0.05 88 1017.4
20260906014023 22 141 0.0 3.2 0.00 0.05 0.05 87 1017.3
20260906013520 22 0 0.0 3.2 0.00 0.05 0.05 87 1017.2
20260906013058 23 140 0.0 3.2 0.00 0.05 0.05 87 1017.2
20260906012519 23 0 0.0 1.6 0.00 0.05 0.05 86 1017.2
20260906012020 23 0 0.0 1.6 0.00 0.05 0.05 86 1017.1
20260906011545 23 0 0.0 3.2 0.00 0.05 0.05 86 1017.2
20260906011020 23 0 0.0 3.2 0.00 0.05 0.05 86 1017.1
20260906010517 23 140 0.0 3.2 0.00 0.05 0.05 86 1017.2
20260906010041 23 140 1.6 3.2 0.00 0.05 0.05 86 1017.2
20260906005517 23 140 0.0 4.8 0.00 0.05 0.05 85 1017.1
20260906005017 23 140 1.6 4.8 0.00 0.05 0.05 85 1017.1
20260906004538 23 140 1.6 4.8 0.00 0.05 0.05 84 1017.0
20260906004024 23 0 0.0 1.6 0.00 0.05 0.05 84 1016.9
20260906003516 23 0 0.0 4.8 0.00 0.05 0.05 84 1016.7
20260906003039 23 0 0.0 4.8 0.00 0.05 0.05 83 1016.8
20260906002518 23 140 3.2 4.8 0.00 0.05 0.05 82 1016.9
20260906002018 24 122 3.2 4.8 0.00 0.05 0.05 81 1016.8
20260906001541 24 109 0.0 6.4 0.00 0.05 0.05 81 1016.6
20260906001019 25 0 0.0 9.7 0.00 0.05 0.05 81 1016.5
20260906000520 25 0 1.6 9.7 0.00 0.05 0.05 80 1016.4
20260906000047 24 130 1.6 11.3 0.00 0.05 0.05 81 1016.4
20260905235523 24 114 3.2 11.3 0.00 0.05 0.05 81 1016.3
20260905235021 24 95 4.8 11.3 0.00 0.05 0.05 81 1016.5
20260905234538 24 110 3.2 9.7 0.00 0.05 0.05 80 1016.5
20260905234019 24 101 4.8 14.5 0.00 0.05 0.05 80 1016.6
20260905233520 25 103 4.8 16.1 0.00 0.05 0.05 79 1016.5
20260905233042 25 76 6.4 16.1 0.00 0.05 0.05 79 1016.4
20260905232518 25 72 6.4 14.5 0.00 0.05 0.05 79 1016.5
20260905232018 25 124 6.4 16.1 0.00 0.05 0.05 78 1016.5
20260905231539 25 88 3.2 16.1 0.00 0.05 0.05 79 1016.6
20260905231018 25 86 4.8 16.1 0.00 0.05 0.05 79 1016.4
20260905230520 25 55 8.0 17.7 0.00 0.05 0.05 79 1016.4
20260905230042 25 65 8.0 17.7 0.00 0.05 0.05 79 1016.4
20260905225519 25 71 6.4 12.9 0.00 0.08 0.05 78 1016.5
20260905225020 25 100 4.8 16.1 0.00 0.08 0.05 79 1016.5
20260905224536 25 105 4.8 16.1 0.00 0.08 0.05 78 1016.6
20260905224020 25 95 8.0 17.7 0.00 0.08 0.05 77 1016.6
20260905223518 25 49 3.2 17.7 0.00 0.08 0.05 80 1016.4
20260905223042 25 61 3.2 16.1 0.00 0.08 0.05 80 1016.4
20260905222523 25 94 8.0 16.1 0.00 0.08 0.05 79 1016.5
20260905222022 25 112 6.4 16.1 0.00 0.08 0.05 79 1016.4
20260905221541 25 107 8.0 19.3 0.00 0.08 0.05 80 1016.4
20260905221020 25 101 8.0 19.3 0.00 0.08 0.05 80 1016.3
20260905220520 25 96 6.4 14.5 0.00 0.08 0.05 80 1016.4
20260905220038 25 69 6.4 17.7 0.00 0.08 0.05 80 1016.6
20260905215520 25 101 8.0 19.3 0.00 0.08 0.05 80 1016.7
20260905215016 25 72 11.3 19.3 0.00 0.08 0.05 79 1016.7
20260905214537 25 77 6.4 17.7 0.00 0.08 0.05 79 1017.0
20260905214020 25 80 3.2 17.7 0.00 0.08 0.05 79 1017.2
20260905213523 25 67 8.0 17.7 0.00 0.08 0.05 78 1017.2
20260905213037 25 109 3.2 14.5 0.00 0.08 0.05 80 1017.1
20260905212518 25 80 6.4 14.5 0.00 0.08 0.05 79 1017.2
20260905212020 25 80 6.4 14.5 0.00 0.08 0.05 79 1017.4
20260905211541 25 74 6.4 12.9 0.00 0.08 0.05 78 1017.4
20260905211018 25 66 6.4 12.9 0.00 0.08 0.05 77 1017.5
20260905210517 25 66 6.4 17.7 0.00 0.08 0.05 77 1017.6
20260905210049 25 62 4.8 17.7 0.00 0.08 0.05 77 1017.6
20260905205520 25 78 9.7 17.7 0.00 0.08 0.05 78 1017.6
20260905205018 25 104 3.2 16.1 0.00 0.08 0.05 77 1017.7
20260905204539 25 103 6.4 16.1 0.00 0.08 0.05 79 1017.7
20260905204020 25 75 6.4 16.1 0.00 0.08 0.05 79 1017.8
20260905203516 25 69 8.0 16.1 0.00 0.08 0.05 79 1018.0
20260905203052 25 32 6.4 14.5 0.00 0.08 0.05 78 1018.1
20260905202520 25 86 3.2 9.7 0.00 0.08 0.05 80 1018.1
20260905202021 25 73 3.2 8.0 0.00 0.08 0.05 80 1018.1
20260905201537 25 82 4.8 9.7 0.00 0.08 0.05 79 1018.2
20260905201020 26 111 1.6 11.3 0.00 0.08 0.05 78 1018.2
20260905200517 26 77 4.8 11.3 0.00 0.08 0.05 77 1018.2
20260905200038 26 226 1.6 9.7 0.00 0.08 0.05 78 1018.2
20260905195522 26 165 3.2 9.7 0.00 0.08 0.05 78 1018.1
20260905195025 26 124 4.8 12.9 0.00 0.08 0.05 77 1018.0
20260905194539 26 155 1.6 12.9 0.00 0.08 0.05 78 1018.0
20260905194019 25 101 3.2 12.9 0.00 0.08 0.05 78 1018.0
20260905193518 25 75 4.8 14.5 0.00 0.08 0.05 82 1017.8
20260905193038 25 108 6.4 14.5 0.00 0.08 0.05 79 1017.8
20260905192520 25 104 4.8 12.9 0.00 0.08 0.05 79 1017.9
20260905192021 25 169 3.2 11.3 0.00 0.08 0.05 79 1018.1
20260905191542 25 134 3.2 11.3 0.00 0.08 0.05 80 1018.0
20260905191018 25 115 3.2 11.3 0.00 0.08 0.05 83 1018.0
20260905190520 25 105 6.4 11.3 0.00 0.08 0.05 81 1018.0
20260905190041 25 159 1.6 9.7 0.00 0.08 0.05 83 1018.1
20260905185518 24 68 4.8 9.7 0.00 0.08 0.05 82 1018.3
20260905185021 24 115 3.2 9.7 0.00 0.08 0.05 82 1018.4
20260905184546 24 97 1.6 6.4 0.00 0.08 0.05 81 1018.5
20260905184024 24 109 3.2 6.4 0.00 0.08 0.05 82 1018.6
20260905183519 24 0 0.0 6.4 0.00 0.08 0.05 82 1018.7
20260905183037 24 124 1.6 6.4 0.00 0.08 0.05 84 1018.5
20260905182518 24 0 1.6 6.4 0.00 0.08 0.05 85 1018.6
20260905182021 24 117 1.6 4.8 0.00 0.08 0.05 84 1018.5
20260905181539 23 0 0.0 4.8 0.00 0.08 0.05 86 1018.6
20260905181017 23 118 1.6 4.8 0.00 0.08 0.05 85 1018.6
20260905180520 23 0 0.0 4.8 0.00 0.08 0.05 86 1018.7
20260905180041 23 120 1.6 4.8 0.00 0.08 0.05 85 1018.7
20260905175518 23 120 1.6 4.8 0.00 0.08 0.05 86 1018.7
20260905175019 23 0 1.6 8.0 0.00 0.08 0.05 85 1018.6
20260905174538 23 109 3.2 8.0 0.00 0.08 0.05 84 1018.8
20260905174019 23 153 1.6 6.4 0.00 0.08 0.05 85 1018.8
20260905173519 23 172 0.0 6.4 0.00 0.08 0.05 86 1018.9
20260905173041 23 105 1.6 6.4 0.00 0.08 0.05 86 1018.8
20260905172520 23 122 3.2 9.7 0.00 0.08 0.05 87 1018.9
20260905172021 23 98 3.2 9.7 0.03 0.08 0.05 86 1018.9
20260905171553 23 109 1.6 12.9 0.03 0.08 0.05 85 1019.0
20260905171017 23 254 1.6 12.9 0.03 0.08 0.05 87 1018.8
20260905170520 23 96 3.2 12.9 0.03 0.08 0.05 85 1018.8
20260905170040 23 118 1.6 9.7 0.03 0.08 0.05 86 1018.7
20260905165520 23 111 1.6 9.7 0.03 0.08 0.05 87 1018.6
20260905165020 23 94 3.2 9.7 0.03 0.08 0.05 86 1018.6
20260905164544 23 121 3.2 9.7 0.03 0.08 0.05 87 1018.7
20260905164020 23 101 3.2 11.3 0.03 0.08 0.05 87 1018.7
20260905163521 23 103 3.2 11.3 0.03 0.08 0.05 87 1018.7
20260905163049 23 173 0.0 11.3 0.03 0.08 0.05 88 1018.6
20260905162519 23 92 1.6 11.3 0.03 0.08 0.05 88 1018.6
20260905162021 22 126 3.2 11.3 0.00 0.05 0.03 89 1018.5
20260905161539 22 103 4.8 11.3 0.00 0.05 0.03 89 1018.5
20260905161020 22 139 3.2 11.3 0.00 0.05 0.03 89 1018.5
20260905160520 22 108 4.8 11.3 0.00 0.05 0.03 89 1018.5
20260905160040 22 106 4.8 12.9 0.00 0.05 0.03 89 1018.5
20260905155519 22 117 4.8 12.9 0.00 0.05 0.03 89 1018.5
20260905155018 22 102 1.6 11.3 0.00 0.05 0.03 90 1018.4
20260905154545 22 102 3.2 11.3 0.00 0.05 0.03 89 1018.5
20260905154019 22 143 3.2 9.7 0.00 0.05 0.03 90 1018.5
20260905153518 22 92 4.8 9.7 0.00 0.05 0.03 90 1018.6
20260905153041 22 0 1.6 6.4 0.00 0.05 0.03 90 1018.6
20260905152521 22 161 0.0 4.8 0.00 0.05 0.03 90 1018.7
20260905152021 22 34 1.6 4.8 0.00 0.05 0.03 91 1018.7
20260905151540 22 56 3.2 6.4 0.00 0.05 0.03 90 1018.6
20260905151019 22 0 1.6 6.4 0.00 0.05 0.03 91 1018.6